Location: Boiro
(42.6475°N, 8.8834°W)
Time: 21:11:42
(UTC+01:00)

Vanguard 3 - Pass Details

Date: 03 December 2021
Orbit: 508 x 3260 km, 33.3° (Epoch: 17 January)

Event Time Altitude Azimuth Distance (km) Brightness Sun altitude
Rises 08:40:58 0° 266° (W) 7,191 11.4 -2.0°
Reaches altitude 10° 08:46:10 10° 264° (W) 6,035 11.1 -1.2°
Maximum altitude 09:03:27 56° 193° (SSW) 2,697 10.0 1.6°
Drops below altitude 10° 09:14:07 10° 119° (ESE) 3,881 13.2 3.2°
Sets 09:16:43 0° 115° (ESE) 4,562 13.3 3.6°
